TimeCST,TemperatureF,Dew PointF,Humidity,Sea Level PressureIn,VisibilityMPH,Wind Direction,Wind SpeedMPH,Gust SpeedMPH,PrecipitationIn,Events,Conditions,WindDirDegrees,DateUTC
12:54 AM,39.0,30.0,70,29.52,10.0,WSW,8.1,-,N/A,,Clear,250,2011-11-14 06:54:00
1:54 AM,37.0,28.9,73,29.53,10.0,Calm,Calm,-,N/A,,Clear,0,2011-11-14 07:54:00
2:54 AM,35.1,28.9,78,29.53,9.0,Calm,Calm,-,N/A,,Clear,0,2011-11-14 08:54:00
3:54 AM,35.1,30.0,82,29.52,9.0,Calm,Calm,-,N/A,,Clear,0,2011-11-14 09:54:00
6:54 AM,32.0,28.9,88,29.53,7.0,Calm,Calm,-,N/A,,Clear,0,2011-11-14 12:54:00
7:54 AM,33.1,28.9,85,29.52,6.0,ESE,4.6,-,N/A,,Clear,110,2011-11-14 13:54:00
8:54 AM,36.0,30.9,82,29.55,9.0,SSW,4.6,-,N/A,,Clear,200,2011-11-14 14:54:00
9:54 AM,39.0,33.1,79,29.52,10.0,South,8.1,-,N/A,,Clear,180,2011-11-14 15:54:00
10:54 AM,43.0,33.1,68,29.52,10.0,South,6.9,-,N/A,,Overcast,190,2011-11-14 16:54:00
11:54 AM,46.9,33.1,59,29.50,10.0,SSW,8.1,-,N/A,,Overcast,210,2011-11-14 17:54:00
12:54 PM,46.0,34.0,63,29.49,10.0,SSW,15.0,23.0,0.00,Rain,Light Rain,210,2011-11-14 18:54:00
1:54 PM,45.0,37.0,74,29.47,10.0,South,8.1,-,0.00,,Overcast,170,2011-11-14 19:54:00
2:54 PM,46.9,37.9,71,29.47,10.0,SSW,8.1,-,N/A,,Scattered Clouds,200,2011-11-14 20:54:00
3:54 PM,46.0,37.0,71,29.48,10.0,SSW,5.8,-,N/A,,Clear,210,2011-11-14 21:54:00
4:54 PM,44.1,37.0,76,29.48,10.0,South,4.6,-,N/A,,Clear,190,2011-11-14 22:54:00
5:54 PM,39.9,37.0,89,29.50,10.0,SSW,6.9,-,N/A,,Clear,210,2011-11-14 23:54:00
6:54 PM,45.0,30.0,56,29.54,10.0,West,15.0,21.9,N/A,,Clear,270,2011-11-15 00:54:00
7:54 PM,44.1,26.1,49,29.59,10.0,West,15.0,25.3,N/A,,Clear,270,2011-11-15 01:54:00
8:54 PM,43.0,25.0,49,29.60,10.0,WSW,11.5,-,N/A,,Clear,250,2011-11-15 02:54:00
9:54 PM,41.0,24.1,51,29.62,10.0,SW,12.7,-,N/A,,Clear,230,2011-11-15 03:54:00
10:54 PM,41.0,23.0,49,29.62,10.0,WSW,11.5,-,N/A,,Clear,250,2011-11-15 04:54:00
11:54 PM,37.9,23.0,55,29.65,10.0,SW,11.5,-,N/A,,Clear,230,2011-11-15 05:54:00